TimePDT,TemperatureF,Dew PointF,Humidity,Sea Level PressureIn,VisibilityMPH,Wind Direction,Wind SpeedMPH,Gust SpeedMPH,PrecipitationIn,Events,Conditions,WindDirDegrees,DateUTC
12:53 AM,73.0,55.9,55,29.86,10.0,Calm,Calm,-,N/A,,Clear,0,2013-06-29 07:53:00
1:53 AM,71.1,55.9,59,29.86,10.0,Calm,Calm,-,N/A,,Clear,0,2013-06-29 08:53:00
2:53 AM,70.0,54.0,57,29.86,10.0,Calm,Calm,-,N/A,,Clear,0,2013-06-29 09:53:00
3:53 AM,68.0,55.0,63,29.86,10.0,Calm,Calm,-,N/A,,Clear,0,2013-06-29 10:53:00
4:53 AM,68.0,55.0,63,29.86,10.0,Calm,Calm,-,N/A,,Clear,0,2013-06-29 11:53:00
5:53 AM,66.0,54.0,65,29.87,10.0,Calm,Calm,-,N/A,,Clear,0,2013-06-29 12:53:00
6:53 AM,73.0,55.9,55,29.88,10.0,Calm,Calm,-,N/A,,Clear,0,2013-06-29 13:53:00
7:53 AM,82.0,55.9,41,29.89,10.0,Variable,3.5,-,N/A,,Clear,0,2013-06-29 14:53:00
8:53 AM,88.0,55.9,34,29.90,10.0,Variable,4.6,-,N/A,,Clear,0,2013-06-29 15:53:00
9:53 AM,91.0,59.0,34,29.89,10.0,NE,6.9,-,N/A,,Clear,50,2013-06-29 16:53:00
10:53 AM,97.0,50.0,20,29.88,10.0,Variable,6.9,-,N/A,,Clear,0,2013-06-29 17:53:00
11:53 AM,99.0,51.1,20,29.88,10.0,North,6.9,-,N/A,,Clear,350,2013-06-29 18:53:00
12:53 PM,100.9,51.1,19,29.86,10.0,NNE,4.6,-,N/A,,Clear,30,2013-06-29 19:53:00
1:53 PM,102.9,53.1,19,29.84,10.0,NE,5.8,-,N/A,,Clear,40,2013-06-29 20:53:00
2:53 PM,102.9,55.0,20,29.82,10.0,Variable,3.5,-,N/A,,Clear,0,2013-06-29 21:53:00
3:53 PM,105.1,54.0,18,29.79,10.0,East,6.9,-,N/A,,Clear,100,2013-06-29 22:53:00
4:53 PM,106.0,55.9,19,29.77,10.0,SW,9.2,-,N/A,,Clear,220,2013-06-29 23:53:00
5:53 PM,104.0,55.0,20,29.75,10.0,SSW,8.1,-,N/A,,Clear,210,2013-06-30 00:53:00
6:53 PM,102.9,57.0,22,29.74,10.0,Variable,5.8,-,N/A,,Clear,0,2013-06-30 01:53:00
7:53 PM,99.0,53.1,21,29.75,10.0,West,5.8,-,N/A,,Clear,260,2013-06-30 02:53:00
8:53 PM,95.0,53.1,24,29.75,10.0,Calm,Calm,-,N/A,,Clear,0,2013-06-30 03:53:00
9:53 PM,84.9,55.9,37,29.77,10.0,Calm,Calm,-,N/A,,Clear,0,2013-06-30 04:53:00
10:53 PM,84.0,55.9,38,29.78,10.0,Calm,Calm,-,N/A,,Clear,0,2013-06-30 05:53:00
11:53 PM,79.0,55.9,45,29.77,10.0,Calm,Calm,-,N/A,,Clear,0,2013-06-30 06:53:00